WA6MEM Weather Reports


time (UTC)temp
C
wind
direction
speed
KPH
gust
KPH
rain 1hr
cm
rain 24hr
cm
rain mn
cm
humidity
%
barometer
mb
20260505124558 10 252 4.8 0.0 0.00 0.00 0.00 93 1012.0
20260505124058 10 297 4.8 0.0 0.00 0.00 0.00 93 1012.0
20260505123556 10 329 4.8 0.0 0.00 0.00 0.00 93 1012.0
20260505123105 10 239 6.4 0.0 0.00 0.00 0.00 93 1012.0
20260505122559 10 246 6.4 0.0 0.00 0.00 0.00 94 1012.0
20260505122056 10 285 6.4 0.0 0.00 0.00 0.00 94 1012.0
20260505121556 10 257 6.4 0.0 0.00 0.00 0.00 94 1012.0
20260505121056 10 271 6.4 0.0 0.00 0.00 0.00 94 1012.0
20260505120556 10 270 6.4 0.0 0.00 0.00 0.00 94 1012.0
20260505120057 10 265 6.4 0.0 0.00 0.00 0.00 94 1012.0
20260505115558 10 254 4.8 0.0 0.00 0.00 0.00 94 1011.9
20260505115055 10 271 6.4 0.0 0.00 0.00 0.00 94 1011.9
20260505114554 10 264 6.4 0.0 0.00 0.00 0.00 94 1011.9
20260505114059 10 251 6.4 0.0 0.00 0.00 0.00 94 1011.8
20260505113556 10 267 4.8 0.0 0.00 0.00 0.00 94 1011.8
20260505113059 10 318 4.8 0.0 0.00 0.00 0.00 94 1011.8
20260505112553 10 300 4.8 0.0 0.00 0.00 0.00 94 1011.9
20260505112053 10 300 4.8 0.0 0.00 0.00 0.00 94 1011.9
20260505111557 10 304 6.4 0.0 0.00 0.00 0.00 94 1011.9
20260505111053 10 292 6.4 0.0 0.00 0.00 0.00 93 1011.9
20260505110552 10 231 4.8 0.0 0.00 0.00 0.00 93 1011.9
20260505102046 10 296 6.4 0.0 0.00 0.00 0.00 94 1011.9
20260505101546 10 280 4.8 0.0 0.00 0.00 0.00 94 1011.9
20260505101048 10 319 3.2 0.0 0.00 0.00 0.00 94 1012.0
20260505100545 10 321 4.8 0.0 0.00 0.00 0.00 94 1012.0
20260505100050 10 332 4.8 0.0 0.00 0.00 0.00 94 1012.0
20260505095546 10 286 4.8 0.0 0.00 0.00 0.00 94 1012.2
20260505095042 10 291 4.8 0.0 0.00 0.00 0.00 94 1012.2
20260505094543 10 273 6.4 0.0 0.00 0.00 0.00 94 1012.2
20260505094042 10 274 4.8 0.0 0.00 0.00 0.00 94 1012.3
20260505093543 10 250 6.4 0.0 0.00 0.00 0.00 94 1012.3
20260505093043 10 298 6.4 0.0 0.00 0.00 0.00 94 1012.3
20260505092542 10 324 8.0 0.0 0.00 0.00 0.00 94 1012.4
20260505092040 10 311 8.0 0.0 0.00 0.00 0.00 94 1012.4
20260505091552 10 295 6.4 0.0 0.00 0.00 0.00 94 1012.4
20260505091042 11 304 6.4 0.0 0.00 0.00 0.00 94 1012.6
20260505090542 11 298 4.8 0.0 0.00 0.00 0.00 94 1012.6
20260505090051 11 304 3.2 0.0 0.00 0.00 0.00 94 1012.6
20260505085538 11 267 3.2 0.0 0.00 0.00 0.00 94 1012.6
20260505085037 11 280 3.2 0.0 0.00 0.00 0.00 94 1012.6
20260505084538 11 302 3.2 0.0 0.00 0.00 0.00 94 1012.6
20260505084036 11 308 3.2 0.0 0.00 0.00 0.00 94 1012.9
20260505083537 11 281 3.2 0.0 0.00 0.00 0.00 94 1012.9
20260505083042 11 286 3.2 0.0 0.00 0.00 0.00 94 1012.9
20260505082535 11 267 3.2 0.0 0.00 0.00 0.00 94 1012.9
20260505082035 11 291 3.2 0.0 0.00 0.00 0.00 94 1012.9
20260505081550 11 288 3.2 0.0 0.00 0.00 0.00 94 1012.9
20260505081035 11 295 3.2 0.0 0.00 0.00 0.00 94 1012.8
20260505080539 11 317 3.2 0.0 0.00 0.00 0.00 94 1012.8
20260505080042 11 288 3.2 0.0 0.00 0.00 0.00 94 1012.8
20260505075534 11 272 1.6 0.0 0.00 0.00 0.00 94 1012.9
20260505075033 11 238 1.6 0.0 0.00 0.00 0.00 94 1012.9
20260505074538 11 188 1.6 0.0 0.00 0.00 0.00 94 1012.9
20260505074034 11 188 1.6 0.0 0.00 0.00 0.00 94 1013.0
20260505073534 11 227 1.6 0.0 0.00 0.00 0.00 94 1013.0
20260505073032 11 229 3.2 0.0 0.00 0.00 0.00 94 1013.0
20260505072531 11 291 3.2 0.0 0.00 0.00 0.00 94 1013.0
20260505072031 11 306 3.2 0.0 0.00 0.00 0.00 94 1013.0
20260505071531 11 291 3.2 0.0 0.00 0.00 0.00 94 1013.0
20260505071031 11 296 3.2 0.0 0.00 0.00 0.00 94 1013.1
20260505070531 11 280 3.2 0.0 0.00 0.00 0.00 94 1013.1
20260505070031 11 297 3.2 0.0 0.00 0.00 0.03 94 1013.1
20260505065530 11 281 3.2 0.0 0.00 0.00 0.03 94 1013.1
20260505065030 11 265 3.2 0.0 0.00 0.00 0.03 94 1013.1
20260505064530 11 277 3.2 0.0 0.00 0.00 0.03 94 1013.1
20260505064029 11 284 3.2 0.0 0.00 0.00 0.03 94 1013.1
20260505063529 11 290 1.6 0.0 0.00 0.00 0.00 94 1013.1
20260505063035 11 189 0.0 0.0 0.00 0.00 0.00 94 1013.1
20260505062529 11 185 0.0 0.0 0.00 0.00 0.00 94 1013.2
20260505062029 11 171 0.0 0.0 0.00 0.00 0.00 94 1013.2
20260505061533 11 171 0.0 0.0 0.00 0.00 0.00 94 1013.2
20260505061029 11 216 0.0 0.0 0.00 0.00 0.00 94 1013.3
20260505060528 11 216 1.6 0.0 0.00 0.00 0.00 94 1013.3
20260505060030 11 158 3.2 0.0 0.00 0.00 0.00 94 1013.3
20260505055527 11 277 4.8 0.0 0.00 0.00 0.00 94 1013.3
20260505055029 11 258 4.8 0.0 0.00 0.00 0.00 94 1013.3
20260505054530 11 277 4.8 0.0 0.00 0.00 0.00 94 1013.3
20260505054027 11 285 3.2 0.0 0.00 0.00 0.00 94 1013.4
20260505053527 11 290 1.6 0.0 0.00 0.00 0.00 94 1013.4
20260505053026 11 184 1.6 0.0 0.00 0.00 0.00 94 1013.4
20260505052526 11 271 1.6 0.0 0.00 0.00 0.00 94 1013.4
20260505052027 11 292 1.6 0.0 0.00 0.00 0.00 94 1013.4
20260505051529 11 202 1.6 0.0 0.00 0.00 0.00 94 1013.4
20260505051029 11 205 1.6 0.0 0.00 0.00 0.00 94 1013.5
20260505050527 11 227 1.6 0.0 0.00 0.00 0.00 94 1013.5
20260505041525 11 201 1.6 0.0 0.00 0.00 0.00 94 1013.6
20260505041025 11 212 1.6 0.0 0.00 0.00 0.00 94 1013.7
20260505040525 11 175 1.6 0.0 0.00 0.00 0.00 94 1013.7
20260505040025 11 165 1.6 0.0 0.00 0.00 0.00 94 1013.7
20260505035523 11 174 1.6 0.0 0.00 0.00 0.00 94 1013.6
20260505035023 11 195 1.6 0.0 0.00 0.00 0.00 94 1013.6
20260505034523 11 196 3.2 0.0 0.00 0.00 0.00 94 1013.6
20260505034024 11 165 1.6 0.0 0.00 0.00 0.00 94 1013.6
20260505033526 11 192 1.6 0.0 0.00 0.00 0.00 94 1013.6
20260505033033 11 151 1.6 0.0 0.00 0.00 0.00 94 1013.6
20260505032524 11 201 3.2 0.0 0.00 0.00 0.00 94 1013.5
20260505032024 11 194 3.2 0.0 0.00 0.00 0.00 94 1013.5
20260505031523 11 178 4.8 0.0 0.00 0.00 0.00 94 1013.5
20260505031023 11 213 4.8 0.0 0.00 0.00 0.00 94 1013.3
20260505030523 11 193 4.8 0.0 0.00 0.00 0.00 94 1013.3
20260505030023 11 176 4.8 0.0 0.00 0.00 0.00 94 1013.3
20260505025527 11 184 4.8 0.0 0.00 0.00 0.00 93 1013.4
20260505025021 11 157 4.8 0.0 0.00 0.00 0.00 93 1013.4
20260505024546 11 176 6.4 0.0 0.00 0.00 0.00 93 1013.4
20260505024021 11 203 6.4 0.0 0.00 0.00 0.00 93 1013.4
20260505023521 11 219 6.4 0.0 0.00 0.00 0.00 93 1013.4
20260505023023 11 185 6.4 0.0 0.00 0.00 0.00 93 1013.4
20260505022522 11 196 6.4 0.0 0.00 0.00 0.00 93 1013.4
20260505022021 11 151 6.4 0.0 0.00 0.00 0.00 92 1013.4
20260505021541 12 205 8.0 0.0 0.00 0.00 0.00 92 1013.4
20260505021020 12 161 8.0 0.0 0.00 0.00 0.00 91 1013.5
20260505020521 12 185 6.4 0.0 0.00 0.00 0.00 91 1013.5
20260505020021 12 166 6.4 0.0 0.00 0.00 0.00 90 1013.5
20260505015523 12 167 6.4 0.0 0.00 0.00 0.00 90 1013.4
20260505015020 12 150 6.4 0.0 0.00 0.00 0.00 89 1013.4
20260505014525 12 180 6.4 0.0 0.00 0.00 0.00 88 1013.4
20260505014022 12 192 4.8 0.0 0.00 0.00 0.00 88 1013.3
20260505013519 12 199 4.8 0.0 0.00 0.00 0.00 87 1013.3
20260505013019 13 175 4.8 0.0 0.00 0.00 0.00 86 1013.3
20260505012522 13 162 4.8 0.0 0.00 0.00 0.00 85 1013.3
20260505012019 13 181 6.4 0.0 0.00 0.00 0.00 83 1013.3
20260505011526 13 214 6.4 0.0 0.00 0.00 0.00 82 1013.3
20260505011018 13 165 6.4 0.0 0.00 0.00 0.00 80 1013.3
20260505010518 14 228 4.8 0.0 0.00 0.00 0.00 79 1013.3
20260505010019 14 163 4.8 0.0 0.00 0.00 0.00 79 1013.3
20260505005518 14 190 6.4 0.0 0.00 0.00 0.00 79 1013.4
20260505005018 14 189 4.8 0.0 0.00 0.00 0.00 80 1013.4
20260505004529 14 162 4.8 0.0 0.00 0.00 0.00 80 1013.4
20260505004017 14 167 4.8 0.0 0.00 0.00 0.00 80 1013.5
20260505003517 13 192 6.4 0.0 0.00 0.00 0.00 78 1013.5
20260505003017 14 144 6.4 0.0 0.00 0.00 0.00 77 1013.5
20260505002517 14 207 6.4 0.0 0.00 0.00 0.00 78 1013.5
20260505002017 14 195 6.4 0.0 0.00 0.00 0.00 79 1013.5
20260505001517 14 207 6.4 0.0 0.00 0.00 0.00 80 1013.5
20260505001018 14 186 8.0 0.0 0.00 0.00 0.00 82 1013.5
20260505000519 13 169 6.4 0.0 0.00 0.00 0.00 82 1013.5
20260505000019 13 200 6.4 0.0 0.00 0.00 0.00 80 1013.5
20260504235516 13 213 8.0 0.0 0.00 0.00 0.00 81 1013.5
20260504235019 13 173 8.0 0.0 0.00 0.00 0.00 82 1013.5
20260504234518 13 174 8.0 0.0 0.00 0.00 0.00 83 1013.5
20260504234017 13 165 8.0 0.0 0.00 0.00 0.00 81 1013.4
20260504233516 14 200 9.7 0.0 0.00 0.00 0.00 78 1013.4
20260504233016 14 140 9.7 0.0 0.00 0.00 0.00 78 1013.4
20260504232516 14 196 9.7 0.0 0.00 0.00 0.00 79 1013.1
20260504232015 15 177 9.7 0.0 0.00 0.00 0.00 76 1013.1
20260504231515 15 136 8.0 0.0 0.00 0.00 0.00 75 1013.1
20260504231017 15 254 8.0 0.0 0.00 0.00 0.00 77 1013.1
20260504230515 15 161 9.7 0.0 0.00 0.00 0.00 76 1013.1
20260504230015 15 188 9.7 0.0 0.00 0.00 0.00 75 1013.1
20260504225517 16 184 9.7 0.0 0.00 0.00 0.00 76 1013.3
20260504225015 15 230 8.0 0.0 0.00 0.00 0.00 78 1013.3
20260504224513 15 175 8.0 0.0 0.00 0.00 0.00 78 1013.3
20260504224014 15 195 11.3 0.0 0.00 0.00 0.00 79 1013.5
20260504223514 15 194 9.7 0.0 0.00 0.00 0.00 79 1013.5
20260504223014 15 175 9.7 0.0 0.00 0.00 0.00 81 1013.5
20260504222514 15 179 9.7 0.0 0.00 0.00 0.00 80 1013.8
20260504222014 15 147 11.3 0.0 0.00 0.00 0.00 81 1013.8
20260504221513 15 234 9.7 0.0 0.00 0.00 0.00 80 1013.8
20260504221013 15 168 8.0 0.0 0.00 0.00 0.00 80 1014.0
20260504220517 15 360 9.7 0.0 0.00 0.00 0.00 79 1014.0
20260504220018 15 236 11.3 0.0 0.00 0.00 0.00 82 1014.0
20260504215512 15 279 9.7 0.0 0.00 0.00 0.00 81 1014.3
20260504215013 15 171 8.0 0.0 0.00 0.00 0.00 82 1014.3
20260504214512 15 233 8.0 0.0 0.00 0.00 0.00 82 1014.3
20260504214013 15 211 9.7 0.0 0.00 0.00 0.00 84 1014.5
20260504213514 15 201 9.7 0.0 0.00 0.00 0.00 82 1014.5
20260504213012 15 162 9.7 0.0 0.00 0.00 0.00 81 1014.5
20260504212512 15 193 9.7 0.0 0.00 0.00 0.00 81 1014.5
20260504212013 15 167 9.7 0.0 0.00 0.00 0.00 82 1014.5
20260504211511 15 173 9.7 0.0 0.00 0.00 0.00 82 1014.5
20260504211011 15 155 9.7 0.0 0.00 0.00 0.00 82 1014.5
20260504210515 15 199 8.0 0.0 0.00 0.00 0.00 81 1014.5
20260504210011 15 203 8.0 0.0 0.00 0.00 0.00 81 1014.5
20260504205510 15 128 8.0 0.0 0.00 0.00 0.00 82 1014.5
20260504205009 15 203 8.0 0.0 0.00 0.00 0.00 81 1014.5
20260504204515 15 183 6.4 0.0 0.00 0.00 0.00 82 1014.5
20260504204009 15 248 8.0 0.0 0.00 0.00 0.00 82 1014.6
20260504203510 15 225 8.0 0.0 0.00 0.00 0.00 80 1014.6
20260504203009 15 360 8.0 0.0 0.00 0.00 0.00 82 1014.6
20260504202509 15 197 9.7 0.0 0.00 0.00 0.00 81 1014.4
20260504202009 15 196 9.7 0.0 0.00 0.00 0.00 80 1014.4
20260504201508 15 186 8.0 0.0 0.00 0.00 0.00 79 1014.4
20260504201009 15 312 8.0 0.0 0.00 0.00 0.00 78 1014.5
20260504200508 16 205 6.4 0.0 0.00 0.00 0.00 78 1014.5
20260504200008 16 150 8.0 0.0 0.00 0.00 0.00 78 1014.5
20260504195507 16 212 8.0 0.0 0.00 0.00 0.00 78 1014.4
20260504195007 16 139 6.4 0.0 0.00 0.00 0.00 78 1014.4
20260504194508 16 200 8.0 0.0 0.00 0.00 0.00 76 1014.4
20260504194007 16 155 8.0 0.0 0.00 0.00 0.00 77 1014.4
20260504193507 16 238 8.0 0.0 0.00 0.00 0.00 71 1014.4
20260504193006 16 202 8.0 0.0 0.00 0.00 0.00 73 1014.4
20260504192506 16 169 8.0 0.0 0.00 0.00 0.00 75 1014.5
20260504192007 16 179 8.0 0.0 0.00 0.00 0.00 71 1014.5
20260504191510 16 140 8.0 0.0 0.00 0.00 0.00 73 1014.5
20260504191004 16 248 8.0 0.0 0.00 0.00 0.00 74 1014.5
20260504190504 16 196 8.0 0.0 0.00 0.00 0.00 72 1014.5
20260504190006 15 187 6.4 0.0 0.00 0.00 0.00 74 1014.5
20260504185500 15 273 6.4 0.0 0.00 0.00 0.00 73 1014.8
20260504185100 15 244 6.4 0.0 0.00 0.00 0.00 75 1014.8
20260504184602 15 227 6.4 0.0 0.00 0.00 0.00 75 1014.8
20260504184100 15 271 8.0 0.0 0.00 0.00 0.00 74 1014.6
20260504183559 15 191 6.4 0.0 0.00 0.00 0.00 76 1014.6
20260504183105 15 226 6.4 0.0 0.00 0.00 0.00 78 1014.6
20260504182558 15 282 6.4 0.0 0.00 0.00 0.00 77 1014.7
20260504182058 15 161 8.0 0.0 0.00 0.00 0.00 79 1014.7
20260504181604 15 234 6.4 0.0 0.00 0.00 0.00 75 1014.7
20260504181058 15 248 6.4 0.0 0.00 0.00 0.00 77 1014.6
20260504180559 15 231 6.4 0.0 0.00 0.00 0.00 78 1014.6
20260504180057 15 204 8.0 0.0 0.00 0.00 0.00 79 1014.6
20260504175556 14 269 9.7 0.0 0.00 0.00 0.00 77 1014.7
20260504175056 15 156 8.0 0.0 0.00 0.00 0.00 78 1014.7
20260504174555 15 192 4.8 0.0 0.00 0.00 0.00 79 1014.7
20260504174055 14 161 6.4 0.0 0.00 0.00 0.00 79 1014.6
20260504173554 14 217 6.4 0.0 0.00 0.00 0.00 79 1014.6
20260504173059 14 316 6.4 0.0 0.00 0.00 0.00 78 1014.6
20260504172554 14 277 6.4 0.0 0.00 0.00 0.00 77 1014.5
20260504172054 14 225 6.4 0.0 0.00 0.00 0.00 77 1014.5
20260504171557 14 210 6.4 0.0 0.00 0.00 0.00 77 1014.5
20260504171054 14 192 4.8 0.0 0.00 0.00 0.00 76 1014.3
20260504170553 14 225 4.8 0.0 0.00 0.00 0.00 75 1014.3
20260504151036 11 277 8.0 0.0 0.00 0.00 0.00 85 1013.7
20260504150536 11 319 9.7 0.0 0.00 0.00 0.00 85 1013.7
20260504141031 10 282 8.0 0.0 0.00 0.00 0.00 91 1013.5
20260504140634 10 311 8.0 0.0 0.00 0.00 0.00 91 1013.5